{"data":{"norad_id":68804,"epoch":"2026-09-19T07:40:18.331104Z","epoch_age_seconds":141892,"freshness":"FRESH","line1":"1 68804U 26089C   26262.31965661  .00010556  00000+0  32883-3 0  9999","line2":"2 68804  97.2857 108.0293 0001396  91.5937 268.5465 15.33445233 23073","mean_motion":15.33445233,"eccentricity":0.0001396,"inclination_deg":97.2857,"raan_deg":108.0293,"arg_perigee_deg":91.5937,"mean_anomaly_deg":268.5465,"bstar":0.00032883,"rev_number":2307,"period_min":93.906190388216,"perigee_km":464.58710357857,"apogee_km":466.49785888973,"semimajor_km":6843.6794812341,"source":"CELESTRAK","updated_at":"2026-09-20T09:00:44.005613Z"}}